FW5176 Weather Reports


time (UTC)temp
C
wind
direction
speed
KPH
gust
KPH
rain 1hr
cm
rain 24hr
cm
rain mn
cm
humidity
%
barometer
mb
20260509213118 10 359 0.0 4.8 0.00 1.50 1.30 100 1009.7
20260509211518 10 359 0.0 9.7 0.00 1.50 1.30 100 1009.6
20260509210017 9 359 0.0 3.2 0.00 1.50 1.30 100 1009.6
20260509204514 9 359 0.0 4.8 0.00 1.50 1.30 100 1009.7
20260509203116 9 359 0.0 4.8 0.00 1.50 1.30 100 1010.0
20260509201508 8 359 0.0 6.4 0.00 1.50 1.30 100 1010.2
20260509200008 8 359 1.6 6.4 0.03 1.52 1.30 100 1010.2
20260509194507 8 359 0.0 6.4 0.05 1.52 1.30 100 1010.1
20260509191502 8 359 0.0 1.6 0.15 1.52 1.30 100 1010.4
20260509190001 8 359 0.0 4.8 0.23 1.50 1.27 99 1010.6
20260509184602 8 359 0.0 3.2 0.23 1.50 1.27 99 1010.5
20260509183201 8 359 0.0 3.2 0.28 1.45 1.24 100 1010.6
20260509181558 8 359 0.0 4.8 0.25 1.42 1.19 99 1010.7
20260509180056 8 359 0.0 3.2 0.15 1.27 1.04 99 1010.7
20260509174619 8 359 0.0 3.2 0.20 1.27 1.04 99 1010.6
20260509173157 7 359 0.0 3.2 0.18 1.22 0.99 99 1010.6
20260509171557 7 359 0.0 6.4 0.13 1.17 0.94 99 1010.6
20260509170155 7 359 0.0 3.2 0.08 1.12 0.89 99 1010.4
20260509164553 7 359 0.0 1.6 0.05 1.07 0.84 99 1010.4
20260509163056 7 359 0.0 3.2 0.03 1.04 0.81 99 1010.5
20260509161557 7 359 0.0 3.2 0.03 1.04 0.81 99 1010.6
20260509160057 7 359 0.0 3.2 0.03 1.04 0.81 99 1010.7
20260509154555 7 359 0.0 3.2 0.03 1.02 0.79 99 1010.7
20260509153154 7 359 0.0 4.8 0.03 1.02 0.79 99 1010.9
20260509151553 7 359 0.0 1.6 0.03 1.02 0.79 99 1011.0
20260509150050 7 359 0.0 4.8 0.05 1.02 0.79 99 1011.1
20260509144550 7 359 0.0 4.8 0.03 0.99 0.76 99 1011.0
20260509143050 7 359 0.0 3.2 0.05 0.99 0.76 99 1011.0
20260509141545 7 359 0.0 1.6 0.05 0.99 0.76 99 1011.0
20260509140043 7 359 0.0 3.2 0.05 0.97 0.71 99 1011.2
20260509134542 7 359 0.0 6.4 0.08 0.97 0.71 99 1011.2
20260509133142 7 359 0.0 4.8 0.05 0.94 0.71 99 1011.4
20260509131547 7 359 0.0 4.8 0.08 0.94 0.71 99 1011.5
20260509130056 6 359 0.0 3.2 0.05 0.91 0.69 99 1011.6
20260509124552 6 359 0.0 4.8 0.03 0.89 0.66 99 1011.6
20260509123046 6 359 0.0 4.8 0.05 0.89 0.66 99 1011.5
20260509121539 6 359 0.0 3.2 0.03 0.86 0.64 99 1011.6
20260509120040 6 359 0.0 3.2 0.05 0.86 0.64 99 1011.8
20260509114540 6 359 0.0 3.2 0.10 0.86 0.64 99 1011.8
20260509113042 6 359 0.0 3.2 0.10 0.84 0.61 99 1011.8
20260509111538 6 359 0.0 3.2 0.13 0.84 0.61 99 1011.9
20260509110037 6 359 0.0 4.8 0.13 0.81 0.58 99 1012.1
20260509104536 6 359 0.0 1.6 0.10 0.79 0.56 99 1012.1
20260509103043 6 359 0.0 1.6 0.08 0.71 0.51 99 1012.2
20260509101557 6 359 0.0 1.6 0.10 0.71 0.48 99 1012.1
20260509100040 6 359 0.0 1.6 0.10 0.69 0.46 99 1012.0
20260509094542 6 359 0.0 1.6 0.10 0.69 0.46 99 1012.0
20260509093138 6 359 0.0 1.6 0.08 0.66 0.43 99 1012.0
20260509091531 6 359 0.0 1.6 0.05 0.64 0.41 98 1012.2
20260509090037 6 359 0.0 3.2 0.00 0.58 0.36 98 1012.3
20260509084531 6 359 0.0 3.2 0.00 0.58 0.36 98 1012.3
20260509083130 6 359 0.0 3.2 0.03 0.58 0.36 98 1012.3
20260509081531 6 359 0.0 3.2 0.03 0.58 0.36 98 1012.5
20260509080031 6 359 0.0 3.2 0.03 0.58 0.36 98 1012.4
20260509074530 6 359 0.0 3.2 0.05 0.58 0.36 98 1012.4
20260509073128 6 359 0.0 1.6 0.08 0.58 0.36 97 1012.7
20260509071534 6 359 0.0 1.6 0.05 0.56 0.33 97 1012.7
20260509070024 6 359 0.0 0.0 0.08 0.56 0.33 97 1012.8
20260509064523 6 359 0.0 1.6 0.08 0.53 0.30 96 1013.1
20260509063122 6 359 0.0 0.0 0.08 0.51 0.28 96 1013.4
20260509061524 6 359 0.0 1.6 0.10 0.51 0.28 96 1013.7
20260509060021 6 359 0.0 0.0 0.10 0.48 0.25 96 1013.7
20260509054519 6 359 0.0 1.6 0.15 0.48 0.25 96 1013.9
20260509053138 6 359 0.0 1.6 0.15 0.43 0.20 95 1013.9
20260509051515 6 359 0.0 1.6 0.15 0.41 0.18 95 1014.1
20260509050019 6 359 0.0 3.2 0.18 0.38 0.15 95 1014.0
20260509044512 6 359 0.0 4.8 0.18 0.36 0.13 96 1014.4
20260509043141 6 359 0.0 1.6 0.13 0.30 0.08 96 1014.3
20260509041506 6 359 0.0 1.6 0.10 0.25 0.03 96 1014.2
20260509040008 6 359 0.0 1.6 0.13 0.25 0.23 96 1014.1
20260509034504 6 359 0.0 3.2 0.10 0.20 0.18 95 1014.2
20260509033106 6 359 0.0 1.6 0.10 0.20 0.18 95 1014.0
20260509031508 7 359 0.0 1.6 0.08 0.18 0.15 95 1014.5
20260509030007 7 359 0.0 4.8 0.05 0.36 0.13 95 1014.5
20260509024510 7 359 0.0 1.6 0.00 0.30 0.08 95 1014.5
20260509023108 7 359 0.0 4.8 0.05 0.30 0.08 94 1014.6
20260509021504 7 359 0.0 3.2 0.05 0.30 0.08 94 1014.5
20260509020003 7 359 0.0 3.2 0.05 0.38 0.08 93 1014.2
20260509014502 7 359 0.0 1.6 0.05 0.38 0.08 93 1014.0
20260509013103 7 359 0.0 6.4 0.03 0.36 0.05 93 1013.8
20260509011509 7 359 0.0 1.6 0.00 0.33 0.03 93 1014.0
20260509010008 7 359 0.0 1.6 0.00 0.33 0.03 92 1013.8
20260509004507 7 359 0.0 0.0 0.00 0.33 0.03 91 1013.4
20260509003011 7 359 0.0 0.0 0.00 0.33 0.03 89 1013.2
20260509001509 7 359 0.0 1.6 0.00 0.33 0.03 88 1013.2
20260509000005 7 359 0.0 1.6 0.00 0.33 0.03 88 1013.3
20260508234504 8 359 0.0 3.2 0.00 0.33 0.03 86 1013.1
20260508233105 8 359 0.0 3.2 0.00 0.33 0.03 85 1012.8
20260508231600 8 359 0.0 1.6 0.00 0.33 0.03 85 1012.4
20260508224642 10 155 0.0 9.7 0.00 0.33 0.03 74 1012.6
20260508223059 11 54 0.0 4.8 0.00 0.33 0.03 72 1012.6
20260508221601 10 61 0.0 4.8 0.00 0.33 0.03 72 1012.6
20260508220058 10 38 0.0 1.6 0.00 0.33 0.03 74 1012.7
20260508214600 10 48 0.0 1.6 0.00 0.33 0.03 74 1012.7